NT9G Weather Reports


time (UTC)temp
C
wind
direction
speed
KPH
gust
KPH
rain 1hr
cm
rain 24hr
cm
rain mn
cm
humidity
%
barometer
mb
20260506012121 12 0 0.0 0.0 0.00 0.00 0.03 42 1010.5
20260506011623 12 0 0.0 0.0 0.00 0.00 0.03 41 1010.3
20260506011120 12 0 0.0 0.0 0.00 0.00 0.03 41 1010.3
20260506010121 12 0 0.0 0.0 0.00 0.00 0.03 40 1010.2
20260506005622 12 0 0.0 0.0 0.00 0.00 0.03 39 1010.2
20260506005123 12 0 0.0 0.0 0.00 0.00 0.03 39 1010.1
20260505223611 13 0 0.0 0.0 0.00 0.00 0.03 35 1010.0
20260505223110 13 0 0.0 0.0 0.00 0.00 0.03 37 1010.1
20260505222610 13 0 0.0 0.0 0.00 0.00 0.03 35 1010.1
20260505222110 13 0 0.0 0.0 0.00 0.00 0.03 36 1010.1
20260505221610 13 0 0.0 0.0 0.00 0.00 0.03 36 1010.2
20260505221109 13 0 0.0 0.0 0.00 0.00 0.03 36 1010.1
20260505220609 13 0 0.0 0.0 0.00 0.00 0.03 37 1010.2
20260505220109 13 0 0.0 0.0 0.00 0.00 0.03 36 1010.4
20260505215609 13 0 0.0 0.0 0.00 0.00 0.03 36 1010.4
20260505215108 13 0 0.0 0.0 0.00 0.00 0.03 36 1010.4
20260505214608 13 0 0.0 0.0 0.00 0.00 0.03 37 1010.4
20260505214108 13 0 0.0 0.0 0.00 0.00 0.03 38 1010.3
20260505213607 13 0 0.0 0.0 0.00 0.00 0.03 37 1010.3
20260505213107 13 0 0.0 0.0 0.00 0.00 0.03 37 1010.5
20260505212607 13 0 0.0 0.0 0.00 0.00 0.03 37 1010.4
20260505212106 13 0 0.0 0.0 0.00 0.00 0.03 36 1010.4
20260505211606 13 0 0.0 0.0 0.00 0.00 0.03 36 1010.4
20260505211106 13 0 0.0 0.0 0.00 0.00 0.03 38 1010.4
20260505210606 13 0 0.0 0.0 0.00 0.00 0.03 38 1010.5
20260505210106 13 0 0.0 0.0 0.00 0.00 0.03 37 1010.7
20260505205605 13 0 0.0 0.0 0.00 0.00 0.03 35 1010.8
20260505205105 13 0 0.0 0.0 0.00 0.00 0.03 36 1010.8
20260505204604 13 0 0.0 0.0 0.00 0.00 0.03 36 1011.0
20260505204104 13 0 0.0 0.0 0.00 0.00 0.03 35 1011.0
20260505203604 13 0 0.0 0.0 0.00 0.00 0.03 37 1011.0
20260505203104 12 0 0.0 0.0 0.00 0.00 0.03 35 1011.1
20260505202603 12 0 0.0 0.0 0.00 0.00 0.03 36 1011.1
20260505202103 12 0 0.0 0.0 0.00 0.00 0.03 39 1011.1
20260505201603 12 0 0.0 0.0 0.00 0.00 0.03 38 1011.3
20260505201103 12 0 0.0 0.0 0.00 0.00 0.03 39 1011.2
20260505200602 12 0 0.0 0.0 0.00 0.00 0.03 38 1011.2
20260505195602 13 0 0.0 0.0 0.00 0.00 0.03 38 1011.5
20260505195101 13 0 0.0 0.0 0.00 0.00 0.03 39 1011.4
20260505194601 13 0 0.0 0.0 0.00 0.00 0.03 39 1011.3
20260505194101 13 0 0.0 0.0 0.00 0.00 0.03 38 1011.3
20260505193600 13 0 0.0 0.0 0.00 0.00 0.03 37 1011.3
20260505193100 13 0 0.0 0.0 0.00 0.00 0.03 38 1011.3
20260505192600 13 0 0.0 0.0 0.00 0.00 0.03 44 1011.2
20260505192100 13 0 0.0 0.0 0.00 0.00 0.03 45 1011.1
20260505191559 13 0 0.0 0.0 0.00 0.00 0.03 45 1011.1
20260505191059 13 0 0.0 0.0 0.00 0.00 0.03 45 1011.1
20260505190559 13 0 0.0 0.0 0.00 0.00 0.03 47 1011.1
20260505190058 13 0 0.0 0.0 0.00 0.00 0.03 45 1011.2
20260505185558 13 0 0.0 0.0 0.00 0.00 0.03 46 1011.2
20260505185058 13 0 0.0 0.0 0.00 0.00 0.03 46 1011.2
20260505184558 13 0 0.0 0.0 0.00 0.00 0.03 44 1011.2
20260505184057 13 0 0.0 0.0 0.00 0.00 0.03 45 1011.2
20260505183557 13 0 0.0 0.0 0.00 0.00 0.03 46 1011.3
20260505183057 13 0 0.0 0.0 0.00 0.00 0.03 45 1011.4
20260505182557 13 0 0.0 0.0 0.00 0.00 0.03 45 1011.5
20260505182056 13 0 0.0 0.0 0.00 0.00 0.03 46 1011.4
20260505181556 13 0 0.0 0.0 0.00 0.00 0.03 45 1011.5
20260505180555 12 0 0.0 0.0 0.00 0.00 0.03 44 1011.5
20260505180055 12 0 0.0 0.0 0.00 0.00 0.03 45 1011.6
20260505175555 12 0 0.0 0.0 0.00 0.00 0.03 43 1011.5
20260505175054 12 0 0.0 0.0 0.00 0.00 0.03 44 1011.5
20260505174554 12 0 0.0 0.0 0.00 0.00 0.03 44 1011.5
20260505174054 12 0 0.0 0.0 0.00 0.00 0.03 46 1011.5
20260505173053 12 0 0.0 0.0 0.00 0.00 0.03 45 1011.4
20260505172553 12 0 0.0 0.0 0.00 0.00 0.03 46 1011.3
20260505172053 12 0 0.0 0.0 0.00 0.00 0.03 44 1011.2
20260505171552 12 0 0.0 0.0 0.00 0.00 0.03 44 1011.2
20260505171052 12 0 0.0 0.0 0.00 0.00 0.03 43 1011.2
20260505170552 12 0 0.0 0.0 0.00 0.00 0.03 48 1011.1
20260505170052 12 0 0.0 0.0 0.00 0.00 0.03 46 1011.1
20260505165551 12 0 0.0 0.0 0.00 0.00 0.03 47 1011.1
20260505165051 12 0 0.0 0.0 0.00 0.00 0.03 45 1011.1
20260505164551 12 0 0.0 0.0 0.00 0.00 0.03 48 1011.1
20260505164050 12 0 0.0 0.0 0.00 0.00 0.03 49 1011.1
20260505163550 12 0 0.0 0.0 0.00 0.00 0.03 49 1011.1
20260505163050 12 0 0.0 0.0 0.00 0.00 0.03 47 1011.2
20260505162550 12 0 0.0 0.0 0.00 0.00 0.03 49 1011.0
20260505162049 12 0 0.0 0.0 0.00 0.00 0.03 51 1010.8
20260505161549 12 0 0.0 0.0 0.00 0.00 0.03 48 1010.8
20260505161049 12 0 0.0 0.0 0.00 0.00 0.03 50 1010.8
20260505160548 12 0 0.0 0.0 0.00 0.00 0.03 50 1010.6
20260505153046 12 0 0.0 0.0 0.00 0.00 0.00 52 1010.3
20260505152546 12 0 0.0 0.0 0.00 0.00 0.00 55 1010.5
20260505152046 11 0 0.0 0.0 0.00 0.00 0.00 56 1010.6
20260505151546 11 0 0.0 0.0 0.00 0.00 0.00 59 1010.5
20260505151045 11 0 0.0 0.0 0.00 0.00 0.00 59 1010.5
20260505150546 11 0 0.0 0.0 0.00 0.00 0.00 62 1010.3
20260505140540 8 0 0.0 0.0 0.00 0.00 0.00 73 1010.2
20260505125036 8 0 0.0 0.0 0.00 0.00 0.00 70 1010.9
20260505124535 8 0 0.0 0.0 0.00 0.00 0.00 69 1010.9
20260505124035 8 0 0.0 0.0 0.00 0.00 0.00 68 1011.1
20260505123535 8 0 0.0 0.0 0.00 0.00 0.00 67 1011.2
20260505123034 9 0 0.0 0.0 0.00 0.00 0.00 66 1011.3
20260505122534 9 0 0.0 0.0 0.00 0.00 0.00 64 1011.5
20260505122034 9 0 0.0 0.0 0.00 0.00 0.00 63 1011.4
20260505121534 10 0 0.0 0.0 0.00 0.00 0.00 61 1011.4
20260505121033 10 0 0.0 0.0 0.00 0.00 0.00 60 1011.3
20260505120533 10 0 0.0 0.0 0.00 0.00 0.00 59 1010.9
20260505120033 10 0 0.0 0.0 0.00 0.00 0.00 59 1010.1
20260505115532 10 0 0.0 0.0 0.00 0.00 0.00 60 1009.7
20260505115032 10 0 0.0 0.0 0.00 0.00 0.00 59 1009.2
20260505114532 10 0 0.0 0.0 0.00 0.00 0.00 59 1009.0
20260505114032 10 0 0.0 0.0 0.00 0.00 0.00 58 1008.9
20260505113531 10 0 0.0 0.0 0.00 0.00 0.00 56 1008.8
20260505113031 10 0 0.0 0.0 0.00 0.00 0.00 57 1009.0
20260505112531 10 0 0.0 0.0 0.00 0.00 0.00 59 1009.2
20260505112031 10 0 0.0 0.0 0.00 0.00 0.00 58 1009.5
20260505111530 10 0 0.0 0.0 0.00 0.00 0.00 58 1009.4
20260505111030 10 0 0.0 0.0 0.00 0.00 0.00 56 1009.4
20260505110530 10 0 0.0 0.0 0.00 0.00 0.00 57 1009.4
20260505102027 11 0 0.0 0.0 0.00 0.00 0.00 57 1008.1
20260505101527 11 0 0.0 0.0 0.00 0.00 0.00 57 1007.9
20260505101027 11 0 0.0 0.0 0.00 0.00 0.00 56 1008.1
20260505100526 11 0 0.0 0.0 0.00 0.00 0.00 56 1007.9
20260505100026 11 0 0.0 0.0 0.00 0.00 0.00 55 1007.7
20260505095526 11 0 0.0 0.0 0.00 0.00 0.00 56 1008.0
20260505095025 11 0 0.0 0.0 0.00 0.00 0.00 56 1007.7
20260505094525 11 0 0.0 0.0 0.00 0.00 0.00 56 1007.8
20260505094025 11 0 0.0 0.0 0.00 0.00 0.00 55 1007.8
20260505093525 11 0 0.0 0.0 0.00 0.00 0.00 55 1008.2
20260505093024 11 0 0.0 0.0 0.00 0.00 0.00 54 1008.3
20260505092524 11 0 0.0 0.0 0.00 0.00 0.00 53 1008.4
20260505092024 11 0 0.0 0.0 0.00 0.00 0.00 53 1008.1
20260505091523 11 0 0.0 0.0 0.00 0.00 0.00 52 1007.6
20260505091023 11 0 0.0 0.0 0.00 0.00 0.00 53 1007.7
20260505090523 11 0 0.0 0.0 0.00 0.00 0.00 52 1007.6
20260505090023 11 0 0.0 0.0 0.00 0.00 0.00 52 1007.3
20260505085522 11 0 0.0 0.0 0.00 0.00 0.00 52 1007.2
20260505085022 12 0 0.0 0.0 0.00 0.00 0.00 52 1007.5
20260505084522 12 0 0.0 0.0 0.00 0.00 0.00 52 1007.8
20260505084021 12 0 0.0 0.0 0.00 0.00 0.00 52 1007.5
20260505083521 12 0 0.0 0.0 0.00 0.00 0.00 52 1007.2
20260505083021 12 0 0.0 0.0 0.00 0.00 0.00 51 1006.9
20260505082521 12 0 0.0 0.0 0.00 0.00 0.00 51 1006.8
20260505082020 12 0 0.0 0.0 0.00 0.00 0.00 52 1006.7
20260505081520 12 0 0.0 0.0 0.00 0.00 0.00 51 1006.8
20260505081020 12 0 0.0 0.0 0.00 0.00 0.00 51 1006.5
20260505080519 12 0 0.0 0.0 0.00 0.00 0.00 50 1006.3
20260505080019 12 0 0.0 0.0 0.00 0.00 0.00 50 1006.1
20260505075519 12 0 0.0 0.0 0.00 0.00 0.00 51 1005.9
20260505075019 12 0 0.0 0.0 0.00 0.00 0.00 50 1005.8
20260505074518 12 0 0.0 0.0 0.00 0.00 0.00 50 1005.5
20260505074018 12 0 0.0 0.0 0.00 0.00 0.00 50 1005.5
20260505073518 12 0 0.0 0.0 0.00 0.00 0.00 50 1005.6
20260505073017 12 0 0.0 0.0 0.00 0.00 0.00 49 1005.5
20260505072517 12 0 0.0 0.0 0.00 0.00 0.00 48 1005.3
20260505072017 13 0 0.0 0.0 0.00 0.00 0.00 48 1005.1
20260505071517 13 0 0.0 0.0 0.00 0.00 0.00 48 1005.1
20260505071016 13 0 0.0 0.0 0.00 0.00 0.00 48 1005.1
20260505070515 13 0 0.0 0.0 0.00 0.00 0.00 48 1005.0
20260505070015 13 0 0.0 0.0 0.00 0.00 0.00 47 1005.0
20260505065515 13 0 0.0 0.0 0.00 0.00 0.00 47 1004.7
20260505065014 13 0 0.0 0.0 0.00 0.00 0.00 47 1004.6
20260505064515 13 0 0.0 0.0 0.00 0.00 0.00 47 1004.7
20260505064014 13 0 0.0 0.0 0.00 0.00 0.00 47 1004.6
20260505063513 13 0 0.0 0.0 0.00 0.00 0.00 47 1004.5
20260505063013 14 0 0.0 0.0 0.00 0.00 0.00 47 1004.2
20260505062513 14 0 0.0 0.0 0.00 0.00 0.00 47 1004.3
20260505062013 14 0 0.0 0.0 0.00 0.00 0.00 46 1004.3
20260505061512 14 0 0.0 0.0 0.00 0.00 0.00 45 1004.1
20260505061012 15 0 0.0 0.0 0.00 0.00 0.00 45 1004.1
20260505060512 15 0 0.0 0.0 0.00 0.00 0.00 45 1004.2
20260505060011 15 0 0.0 0.0 0.00 0.00 0.00 45 1004.3
20260505055511 15 0 0.0 0.0 0.00 0.00 0.00 45 1004.3
20260505055011 15 0 0.0 0.0 0.00 0.00 0.00 45 1004.2
20260505054511 15 0 0.0 0.0 0.00 0.00 0.00 44 1003.9
20260505054010 15 0 0.0 0.0 0.00 0.00 0.00 44 1004.0
20260505053510 15 0 0.0 0.0 0.00 0.00 0.08 46 1003.9
20260505053010 15 0 0.0 0.0 0.00 0.00 0.08 46 1003.6
20260505052509 15 0 0.0 0.0 0.00 0.00 0.08 47 1003.6
20260505052009 15 0 0.0 0.0 0.00 0.00 0.08 47 1003.5
20260505051509 15 0 0.0 0.0 0.00 0.00 0.08 49 1003.4
20260505051009 16 0 0.0 0.0 0.00 0.00 0.08 53 1003.4
20260505050508 16 0 0.0 0.0 0.00 0.00 0.08 56 1003.3
20260505041506 16 0 0.0 0.0 0.00 0.00 0.08 66 1002.6
20260505041007 16 0 0.0 0.0 0.00 0.00 0.08 66 1002.4
20260505040505 17 0 0.0 0.0 0.00 0.00 0.08 66 1002.2
20260505040005 17 0 0.0 0.0 0.00 0.00 0.08 67 1002.1
20260505035504 17 0 0.0 0.0 0.00 0.00 0.08 67 1002.2
20260505034505 17 0 0.0 0.0 0.00 0.00 0.05 66 1002.5
20260505034004 17 0 0.0 0.0 0.00 0.00 0.05 67 1002.6
20260505033003 17 0 0.0 0.0 0.00 0.00 0.05 68 1002.4
20260505032504 17 0 0.0 0.0 0.00 0.00 0.05 69 1002.3
20260505030503 17 0 0.0 0.0 0.00 0.00 0.03 66 1001.8
20260505030003 17 0 0.0 0.0 0.00 0.00 0.03 66 1001.8
20260505024002 17 0 0.0 0.0 0.00 0.00 0.03 61 1001.3
20260505023000 17 0 0.0 0.0 0.00 0.00 0.03 58 1001.9
20260505015958 16 0 0.0 0.0 0.00 0.00 0.03 73 1001.7
20260505013956 18 0 0.0 0.0 0.00 0.00 0.00 62 1002.0
20260505013456 18 0 0.0 0.0 0.00 0.00 0.00 61 1000.9